Weather Roundup
Issued by NWS

Home | Current Version | Previous Version | Text Only | Print | Product List | Glossary On
Versions: 1 2 3 4 5 6 7 8 9 10 11 12 13 14 15 16 17 18 19 20 21 22 23 24 25 26 27 28 29 30 31 32 33 34 35 36 37 38 39 40 41 42 43 44 45 46 47 48 49 50
000
NZUS93 KARX 242310
HRRWXR

CURRENT HOURLY OBSERVATIONS ACROSS
MUCH OF THE UPPER MISSISSIPPI VALLEY
NATIONAL WEATHER SERVICE LA CROSSE WI
600 PM CDT WED AUG 24 2016


...SOUTHEAST MINNESOTA...


CITY           SKY/WX    TMP DP  RH WIND       PRES   REMARKS
ROCHESTER      PTSUNNY   75  64  68 NW7       29.99R
ROCHESTER/MAYO FAIR      77  60  56 W8        29.98R
WINONA         CLOUDY    77  64  65 NW7       29.94S
AUSTIN         MOSUNNY   75  63  64 NW6       29.99S
ALBERT LEA     CLOUDY    75  63  64 W3        30.00S
DODGE CENTER   CLOUDY    75  61  60 NW13      30.00R
PRESTON        CLOUDY    74  63  68 NW6       29.99S
OWATONNA       CLOUDY    75  61  60 W8        30.00R
FARIBAULT      CLOUDY    73  63  68 W9        29.99S
$$

...ELSEWHERE IN MINNESOTA...


CITY           SKY/WX    TMP DP  RH WIND       PRES   REMARKS
MINNEAPOLIS    CLOUDY    76  56  49 W13       29.96R
INTNL FALLS    MOSUNNY   72  53  51 W10G18    29.83S
DULUTH         MOSUNNY   77  55  46 W18       29.88R
RED WING       MOSUNNY   77  57  50 NW6       29.93S
REDWOOD FALLS  CLOUDY    73  59  61 NW5       30.00S
MANKATO        CLOUDY    73  57  56 NW9       30.00S
WORTHINGTON    CLOUDY    70  60  70 W8        30.05F
FAIRMONT       CLOUDY    73  61  65 NW6       30.03R
$$

...SOUTHWEST WISCONSIN...


CITY           SKY/WX    TMP DP  RH WIND       PRES   REMARKS
LA CROSSE      PTSUNNY   80  32  17 NW7       29.93R
PRAIRIE DU CHI CLOUDY    79  70  73 SW3       29.93S
BOSCOBEL       CLOUDY    82  73  74 W5        29.92S
LONE ROCK      PTSUNNY   82  73  74 W10       29.92R
PLATTEVILLE    PTSUNNY   82  75  79 W9        29.95S
FORT MC COY    MOSUNNY   78  70  74 W7        29.94R
CAMP DOUGLAS   PTSUNNY   77  72  83 W8        29.92R
MAUSTON-NEW LI PTCLDY    80  72  76 W6        29.92R
VIROQUA        CLOUDY    79  71  76 N7        29.95S
WIS DELLS      PTSUNNY   81  71  72 W7        29.92S
$$

...ELSEWHERE IN WISCONSIN...


CITY           SKY/WX    TMP DP  RH WIND       PRES   REMARKS
MILWAUKEE      CLOUDY    86  70  58 W12       29.91R HX  90
MADISON        PTSUNNY   82  73  74 CALM      29.91S
GREEN BAY      SUNNY     79  72  79 W13       29.87S
EAU CLAIRE     MOSUNNY   78  64  61 W10       29.92S
BLACK RVR FLS  FAIR      79  67  67 W5        29.93S
MEDFORD        PTSUNNY   73  68  83 W10       29.93S
WAUSAU         PTSUNNY   76  65  68 W13       29.90R
WIS RAPIDS     MOSUNNY   79  68  69 NW10      29.93R
MARSHFIELD     MOSUNNY   76  65  68 W9        29.93R
RICE LAKE      MOSUNNY   73  59  60 W5        29.94S
$$

...NORTHEAST IOWA...


CITY           SKY/WX    TMP DP  RH WIND       PRES   REMARKS
WATERLOO       CLOUDY    76  71  85 W7        29.97R
DUBUQUE        MOSUNNY   81  71  71 W9        29.96R
DECORAH        PTSUNNY   77  70  78 NW7       29.95S
MASON CITY     MOSUNNY   76  65  68 NW8       30.02R
CHARLES CITY   CLOUDY    77  70  78 NW5       29.99R
OELWEIN        CLOUDY    77  72  83 W8        29.98S
$$

...ELSEWHERE IN IOWA...


CITY           SKY/WX    TMP DP  RH WIND       PRES   REMARKS
DES MOINES     TSTM      77  73  87 S3        29.98R FOG
IOWA CITY      PTSUNNY   82  71  69 SW6       29.97S
FORT DODGE     CLOUDY    75  63  64 N5        30.03R
MARSHALLTOWN   CLOUDY    76  73  91 N7        29.96F
CEDAR RAPIDS   CLOUDY    79  74  84 NW8       29.96R
$$

...NORTHERN ILLINOIS...


CITY           SKY/WX    TMP DP  RH WIND       PRES   REMARKS
CHICAGO-OHARE  MOSUNNY   83  70  64 W12       29.92S
CHICAGO-MIDWAY PTSUNNY   85  71  63 W13       29.93R HX  90
MOLINE         CLOUDY    84  71  65 SW6       29.95S
ROCKFORD       MOSUNNY   84  73  69 W9        29.95R HX  90
PEORIA         MOSUNNY   84  72  67 W6        29.98S
$$

NOTE: "FAIR" INDICATES FEW OR NO CLOUDS BELOW 12,000 FEET WITH NO
SIGNIFICANT WEATHER AND/OR OBSTRUCTIONS TO VISIBILITY. WIND
SPEEDS ARE IN MILES-PER-HOUR.




USA.gov is the U.S. government's official web portal to all federal, state and local government web resources and services.